Showing default

YAOGAN-35 02B, 52908

Orbit data source: Space-Track

YAOGAN-35 02B, 52908 is a payload satellite owned by PLA GAD (CN) in LEO that was launched on Thu, 23 Jun 2022 UTC via a CHANG ZHENG 2D launch vehicle from the Xichang Space Center, China (XSC). Payload-class satellites include a variety of spacecraft equipped with specific instruments for various scientific and technological missions. These include communications satellites like Starlink; space stations such as the ISS; scientific satellites like the Hubble; Earth observation satellites from companies like Planet Labs, Umbra, and HawkEye 360; GPS; miniature CubeSats for education and research; and military/defense satellites.

Not visible in the next 10 days
Identifier
52908, 2022-068B
Orbit
LEO
Country
Flag of CNCN / PRC
Related business
Manufacturer
DFH
Mission
Operational Defense Sigint
Bus & Motor
Unknown
Mass
~300 kg wet, ~300 kg dry
Launch date (UTC)
2022-06-23 (4 years ago)
Launch vehicle
CHANG ZHENG 2D
Launch site
Xichang Space Center, China (XSC)
Object type
Payload
Rocket body
Debris
Shape & HBR
Box + 2 Pan, 2.5 m
Radar Cross Section
11.063 m², Large (>1 m²)

Expand to show TLE details & history
Last TLE update: 1 day ago

TLE from 1 day ago
0 YAOGAN-35 02B
1 52908U 22068B   26172.32422153  .00075300  00000-0  86332-3 0  9992
2 52908  34.9957  30.4845 0003962 343.6804  16.3794 15.60870831223348
Epoch: 2026-06-21T07:46Z
TLE epoch observation values (Epoch: 2026-06-21T07:46:52.740Z)
Latitude
-0.00003°
Longitude
4.23858°
Altitude
381.459 km
Speed
7.685 km/s
True Right ascension
02h 01m 56s
True Declination
0° 00' 00"
Sunlit
Object was in daylight at epoch
Visualization orbit readout
Latitude
Unknown
Longitude
Unknown
Altitude
Unknown
Speed
Unknown
Apparent Right ascension
Unknown
Apparent Declination
Unknown
Sunlit
N/A
Visualization observer readout
Local Sidereal Time
21:30:17
Azimuth
Unknown
Elevation
Unknown
Doppler factor
Unknown
Orbital elements
Apogee altitude
391.126 km
Perigee altitude
385.764 km
Semi-major axis
6,766.582 km
Eccentricity
0.0004
Inclination
34.9957°
RAAN
30.4845°
Arg. of periapsis
343.6804°
True anomaly
16.39221°
Mean anomaly
16.3794°
Eccentric anomaly
16.3858°
Mean motion
3.89932 °/min
Orbital period
92.32 mins
BSTAR
0.00086332
Loading maneuver chart data...
Computing Atmospheric mass density...
Loading historical data...
Loading historical data...
Loading historical data...
Loading historical data...
Loading historical data...
Loading historical data...
Loading historical data...

Documentation

Showing up to 5 results
|